Location: Marcé
(47.5801°N, 0.3280°W)
Time: 22:46:50
(UTC+01:00)

S-56A Canister/Altair - Pass Details

Date: 07 December 2021
Orbit: 633 x 2499 km, 38.9° (Epoch: 16 January)

Event Time Altitude Azimuth Distance (km) Brightness Sun altitude
Rises 21:52:43 0° 204° (SSW) 5,954 12.1 -46.4°
Reaches altitude 10° 21:58:02 10° 192° (SSW) 4,720 11.4 -47.3°
Enters shadow 21:58:05 10° 192° (SSW) 4,710 11.4 -47.3°
Maximum altitude 22:06:46 22° 149° (SSE) 3,305 - -48.6°
Drops below altitude 10° 22:13:41 10° 103° (ESE) 3,657 - -49.7°
Sets 22:17:07 0° 89° (E) 4,342 - -50.2°
